Location: Gollag?dem
(16.8053°N, 80.8024°E)
Time: 10:07:28
(UTC+00:00)

Nadezhda 1 Rocket - Pass Details

Date: 13 August 2020
Orbit: 940 x 1006 km, 83.0° (Epoch: 18 September)

Event Time Altitude Azimuth Distance (km) Brightness Sun altitude
Rises 23:35:18 0° 187° (S) 3,715 6.8 -11.1°
Reaches altitude 10° 23:37:49 10° 189° (S) 2,770 6.1 -10.6°
Maximum altitude 23:44:11 75° 274° (W) 1,038 4.0 -9.1°
Drops below altitude 10° 23:50:34 10° 359° (N) 2,771 6.6 -7.7°
Sets 23:53:06 0° 1° (N) 3,717 7.3 -7.1°
